GW2652 Weather Reports


Display with metric or nautical units.
time (UTC)temp
F
wind
direction
speed
MPH
gust
MPH
rain 1hr
in
rain 24hr
in
rain mn
in
humidity
%
barometer
mb
20260503035635 33 183 0.0 0.0 0.00 0.01 0.01 92 1011.0
20260503035133 33 183 0.0 0.0 0.00 0.01 0.01 92 1010.7
20260503034631 33 183 0.0 0.0 0.00 0.01 0.01 91 1011.1
20260503034128 33 183 0.0 0.0 0.00 0.01 0.01 90 1011.1
20260503033625 33 183 0.0 0.0 0.00 0.01 0.01 91 1011.0
20260503033122 33 183 0.0 0.0 0.00 0.01 0.01 91 1011.1
20260503032621 33 183 0.0 0.0 0.00 0.01 0.01 91 1011.2
20260503032119 33 183 0.0 0.0 0.00 0.01 0.01 91 1011.2
20260503031616 33 183 0.0 0.0 0.00 0.01 0.01 90 1011.2
20260503031113 33 183 0.0 0.0 0.00 0.01 0.01 90 1011.2
20260503030609 34 183 0.0 0.0 0.00 0.01 0.01 88 1011.2
20260503030106 34 183 0.0 0.0 0.00 0.01 0.01 88 1011.3
20260503025603 35 183 0.0 0.0 0.00 0.01 0.01 87 1011.0
20260503025101 35 183 0.0 0.0 0.00 0.01 0.01 87 1011.2
20260503024556 35 183 0.0 0.0 0.00 0.01 0.01 87 1011.1
20260503024054 35 183 0.0 0.0 0.00 0.01 0.01 86 1011.2
20260503023550 36 183 0.0 0.0 0.00 0.01 0.01 86 1011.4
20260503023048 35 183 0.0 0.0 0.00 0.01 0.01 84 1011.1
20260503022544 35 183 0.0 0.0 0.00 0.01 0.01 84 1011.0
20260503022039 36 183 0.0 0.0 0.00 0.01 0.01 83 1011.1
20260503021536 37 183 0.0 0.0 0.00 0.01 0.01 82 1010.9
20260503021033 37 183 0.0 0.0 0.00 0.01 0.01 83 1011.3
20260503020530 38 183 0.0 0.0 0.00 0.01 0.01 81 1011.2
20260503020027 38 183 0.0 0.0 0.00 0.01 0.01 79 1011.3
20260503015523 39 183 0.0 0.0 0.00 0.01 0.01 79 1011.0
20260503015021 39 183 0.0 0.0 0.00 0.01 0.01 79 1011.2
20260503014517 39 183 0.0 0.0 0.00 0.01 0.01 72 1011.0
20260503014015 40 183 0.0 0.0 0.00 0.01 0.01 72 1011.0
20260503013512 40 197 1.0 1.0 0.00 0.01 0.01 69 1011.0
20260503013009 41 167 0.0 0.0 0.00 0.01 0.01 69 1011.1
20260503012507 41 159 0.0 0.0 0.00 0.01 0.01 67 1011.0
20260503012003 41 117 1.0 1.0 0.00 0.01 0.01 67 1010.9
20260503011500 41 240 2.0 2.0 0.00 0.01 0.01 68 1011.0
20260503010957 41 173 0.0 1.0 0.00 0.01 0.01 66 1010.9
20260503010453 41 169 0.0 0.0 0.00 0.01 0.01 66 1010.5
20260503005950 41 151 0.0 0.0 0.00 0.01 0.01 67 1010.9
20260503005447 41 220 1.0 2.0 0.00 0.01 0.01 65 1010.4
20260503004944 42 94 0.0 0.0 0.00 0.01 0.01 64 1010.9
20260503004441 42 92 1.0 1.0 0.00 0.01 0.01 64 1010.4
20260503003939 42 336 0.0 0.0 0.00 0.01 0.01 66 1010.4
20260503003435 42 62 2.0 3.0 0.00 0.01 0.01 65 1010.5
20260503002932 42 63 1.0 1.0 0.00 0.01 0.01 64 1010.5
20260503002429 42 138 0.0 1.0 0.00 0.01 0.01 63 1010.4
20260503001926 42 137 0.0 0.0 0.00 0.01 0.01 63 1010.5
20260503001422 42 134 0.0 0.0 0.00 0.01 0.01 62 1010.2
20260503000920 42 224 0.0 0.0 0.00 0.01 0.01 65 1010.4
20260503000417 43 133 0.0 0.0 0.00 0.01 0.01 62 1010.5
20260502235914 43 133 2.0 2.0 0.00 0.01 0.01 61 1010.2
20260502235411 43 134 2.0 3.0 0.00 0.01 0.01 60 1010.3
20260502234908 43 173 1.0 1.0 0.00 0.01 0.01 60 1010.4
20260502234405 43 295 0.0 0.0 0.00 0.01 0.01 62 1010.0
20260502233902 44 295 1.0 1.0 0.00 0.01 0.01 59 1010.3
20260502233357 44 142 0.0 0.0 0.00 0.01 0.01 59 1010.3
20260502232855 44 285 2.0 3.0 0.00 0.01 0.01 58 1010.1
20260502232351 44 119 1.0 1.0 0.00 0.01 0.01 61 1010.1
20260502231848 44 119 0.0 1.0 0.00 0.01 0.01 60 1010.1
20260502231346 44 135 1.0 2.0 0.00 0.01 0.01 59 1010.3
20260502230844 44 166 0.0 0.0 0.00 0.01 0.01 59 1010.1
20260502230341 44 279 2.0 3.0 0.00 0.01 0.01 60 1010.0
20260502225837 44 162 0.0 0.0 0.00 0.01 0.01 61 1010.2
20260502225329 44 127 1.0 1.0 0.00 0.01 0.01 58 1010.2
20260502224826 44 215 3.0 3.0 0.00 0.01 0.01 57 1010.0
20260502224322 45 112 0.0 1.0 0.00 0.01 0.01 57 1010.0
20260502223820 45 108 0.0 1.0 0.00 0.01 0.01 59 1010.1
20260502223317 45 307 5.0 6.0 0.00 0.01 0.01 58 1010.0
20260502222814 45 239 2.0 2.0 0.00 0.01 0.01 59 1010.2
20260502222306 45 266 4.0 6.0 0.00 0.01 0.01 57 1009.9
20260502221802 45 254 4.0 7.0 0.00 0.01 0.01 57 1010.0
20260502221258 45 306 3.0 3.0 0.00 0.01 0.01 58 1010.0
20260502220755 45 105 0.0 1.0 0.00 0.01 0.01 59 1009.8
20260502220251 45 24 0.0 1.0 0.00 0.01 0.01 58 1009.9
20260502215748 45 94 2.0 2.0 0.00 0.01 0.01 57 1009.9
20260502215245 45 234 3.0 4.0 0.00 0.01 0.01 55 1009.8
20260502214742 45 141 2.0 3.0 0.00 0.01 0.01 54 1010.0
20260502214239 46 300 4.0 8.0 0.00 0.01 0.01 53 1010.0
20260502213736 46 281 4.0 4.0 0.00 0.01 0.01 54 1010.0
20260502213234 46 148 2.0 4.0 0.00 0.01 0.01 52 1009.8
20260502212733 46 260 3.0 3.0 0.00 0.01 0.01 53 1009.6
20260502212230 46 65 3.0 4.0 0.00 0.01 0.01 53 1009.8
20260502211726 46 335 4.0 6.0 0.00 0.01 0.01 53 1009.7
20260502211223 47 303 4.0 6.0 0.00 0.01 0.01 53 1009.8
20260502210720 47 143 1.0 1.0 0.00 0.01 0.01 52 1010.1
20260502210217 46 122 2.0 3.0 0.00 0.01 0.01 51 1009.8
20260502205715 46 238 3.0 3.0 0.00 0.01 0.01 52 1010.0
20260502205211 47 263 3.0 3.0 0.00 0.01 0.01 53 1009.6
20260502204708 46 182 0.0 1.0 0.00 0.01 0.01 51 1009.7
20260502204206 46 313 6.0 7.0 0.00 0.01 0.01 52 1009.8
20260502203703 46 297 5.0 8.0 0.00 0.01 0.01 52 1009.9
20260502203200 46 299 8.0 9.0 0.00 0.01 0.01 51 1009.9
20260502202654 46 234 2.0 3.0 0.00 0.01 0.01 52 1010.0
20260502202153 47 138 4.0 4.0 0.00 0.01 0.01 50 1010.0
20260502201650 46 251 4.0 7.0 0.00 0.01 0.01 52 1010.1
20260502201146 46 257 6.0 8.0 0.00 0.01 0.01 52 1010.2
20260502200642 46 221 2.0 2.0 0.00 0.01 0.01 52 1010.1
20260502200139 46 194 1.0 2.0 0.00 0.01 0.01 53 1010.3
20260502195637 46 305 3.0 4.0 0.00 0.01 0.01 51 1010.2
20260502195133 47 194 0.0 0.0 0.00 0.01 0.01 53 1010.1
20260502194630 46 166 1.0 1.0 0.00 0.01 0.01 53 1010.2
20260502194127 46 259 2.0 2.0 0.00 0.01 0.01 52 1010.2
20260502193623 46 118 1.0 1.0 0.00 0.01 0.01 49 1010.3
20260502193120 46 266 1.0 1.0 0.00 0.01 0.01 53 1010.6
20260502192616 46 108 1.0 1.0 0.00 0.01 0.01 51 1010.5
20260502192114 47 254 2.0 3.0 0.00 0.01 0.01 51 1010.7
20260502191610 47 247 4.0 4.0 0.00 0.01 0.01 53 1010.5
20260502191108 46 185 2.0 4.0 0.00 0.01 0.01 49 1010.9
20260502190605 46 336 4.0 6.0 0.00 0.01 0.01 48 1010.5
20260502185556 48 195 2.0 2.0 0.00 0.01 0.01 47 1010.7
20260502185048 48 267 4.0 6.0 0.00 0.01 0.01 47 1010.9
20260502184544 47 107 0.0 1.0 0.00 0.01 0.01 50 1010.9
20260502184040 48 125 2.0 3.0 0.00 0.01 0.01 48 1010.9
20260502183537 48 230 2.0 2.0 0.00 0.01 0.01 50 1010.7
20260502183033 47 244 2.0 2.0 0.00 0.01 0.01 49 1010.7
20260502182527 47 198 2.0 3.0 0.00 0.01 0.01 51 1010.6
20260502182024 47 232 4.0 6.0 0.00 0.01 0.01 49 1010.7
20260502181522 48 274 4.0 6.0 0.00 0.01 0.01 46 1010.7
20260502181021 49 112 4.0 7.0 0.00 0.01 0.01 45 1010.9
20260502180517 49 269 2.0 3.0 0.00 0.01 0.01 46 1010.5
20260502170436 50 79 6.0 8.0 0.00 0.01 0.01 46 1010.4
20260502163919 48 156 1.0 1.0 0.00 0.01 0.01 55 1010.6
20260502163415 47 289 3.0 6.0 0.00 0.01 0.01 57 1010.5
20260502162913 46 254 2.0 3.0 0.00 0.01 0.01 56 1010.7
20260502162410 47 64 1.0 2.0 0.00 0.01 0.01 51 1010.7
20260502161907 48 76 0.0 2.0 0.00 0.01 0.01 54 1010.6
20260502161403 47 317 3.0 4.0 0.00 0.01 0.01 52 1011.0
20260502160901 49 170 1.0 1.0 0.00 0.01 0.01 57 1010.9
20260502160359 48 189 1.0 2.0 0.00 0.01 0.01 51 1010.9
20260502152340 47 278 3.0 4.0 0.00 0.01 0.01 54 1011.0
20260502151838 45 326 4.0 4.0 0.00 0.01 0.01 57 1011.1
20260502151334 45 115 1.0 1.0 0.00 0.01 0.01 58 1010.7
20260502150832 46 62 2.0 6.0 0.00 0.01 0.01 61 1010.7
20260502150328 46 265 4.0 6.0 0.00 0.01 0.01 59 1010.9
20260502130716 42 290 3.0 6.0 0.00 0.01 0.01 72 1011.2
20260502130214 42 293 4.0 6.0 0.00 0.01 0.01 73 1011.1
20260502123700 42 280 3.0 6.0 0.00 0.01 0.01 75 1010.9
20260502123156 42 263 3.0 3.0 0.00 0.01 0.01 76 1010.7
20260502122653 42 291 4.0 6.0 0.00 0.01 0.01 76 1011.0
20260502122149 42 103 1.0 1.0 0.00 0.01 0.01 79 1011.0
20260502121648 42 95 0.0 0.0 0.00 0.01 0.01 86 1010.9
20260502121145 43 82 4.0 6.0 0.00 0.01 0.01 86 1010.9
20260502120641 42 70 2.0 2.0 0.00 0.01 0.01 88 1011.0
20260502120138 43 142 2.0 2.0 0.00 0.01 0.01 90 1011.0
20260502115636 41 182 0.0 1.0 0.00 0.01 0.01 92 1010.9
20260502115132 39 135 1.0 2.0 0.00 0.01 0.01 94 1011.1
20260502114628 39 153 0.0 0.0 0.00 0.01 0.01 97 1011.1
20260502114126 39 272 0.0 0.0 0.00 0.01 0.01 98 1011.2
20260502113623 39 271 1.0 2.0 0.00 0.01 0.01 99 1011.0
20260502113121 39 271 0.0 1.0 0.00 0.01 0.01 99 1011.1
20260502112619 39 206 0.0 0.0 0.00 0.01 0.01 99 1011.0
20260502112116 39 174 0.0 0.0 0.00 0.01 0.01 99 1011.0
20260502111613 38 174 0.0 0.0 0.00 0.01 0.01 99 1011.0
20260502111110 38 174 0.0 0.0 0.00 0.01 0.01 99 1010.6
20260502110608 38 174 0.0 0.0 0.00 0.01 0.01 99 1010.7
20260502110106 38 174 0.0 0.0 0.00 0.01 0.01 99 1010.6
20260502105603 38 174 0.0 0.0 0.00 0.01 0.01 99 1010.9
20260502105100 38 174 0.0 0.0 0.00 0.01 0.01 99 1010.9
20260502104556 38 230 0.0 0.0 0.00 0.01 0.01 99 1010.5
20260502104054 38 230 0.0 0.0 0.00 0.01 0.01 99 1010.7
20260502103552 38 230 0.0 0.0 0.00 0.01 0.01 99 1010.5
20260502103050 38 230 0.0 0.0 0.00 0.01 0.01 99 1010.4
20260502102546 38 230 0.0 0.0 0.00 0.01 0.01 99 1010.6
20260502102043 38 230 0.0 0.0 0.00 0.01 0.01 99 1010.5
20260502101541 38 230 0.0 0.0 0.00 0.01 0.01 99 1010.3
20260502101039 38 230 0.0 0.0 0.00 0.01 0.01 99 1010.3
20260502100537 38 230 0.0 0.0 0.00 0.01 0.01 99 1010.4
20260502091512 39 231 1.0 2.0 0.00 0.01 0.01 98 1009.9
20260502091009 39 198 0.0 0.0 0.00 0.01 0.01 98 1010.0
20260502090506 39 198 0.0 0.0 0.00 0.01 0.01 98 1009.9
20260502071401 39 172 0.0 1.0 0.00 0.01 0.01 98 1009.7
20260502070859 39 137 0.0 1.0 0.00 0.01 0.01 98 1009.7
20260502070356 39 141 0.0 1.0 0.00 0.01 0.01 98 1009.6
20260502065855 39 140 1.0 1.0 0.00 0.01 0.01 98 1009.2
20260502065353 39 138 0.0 0.0 0.00 0.01 0.01 98 1009.1
20260502064850 40 141 0.0 0.0 0.00 0.01 0.01 97 1009.3
20260502064348 39 124 0.0 0.0 0.00 0.01 0.01 97 1009.5
20260502063845 39 151 0.0 0.0 0.00 0.01 0.01 97 1009.7
20260502063343 40 71 1.0 1.0 0.00 0.01 0.01 97 1009.6
20260502062840 39 54 0.0 0.0 0.00 0.01 0.01 97 1009.5
20260502062337 40 231 2.0 2.0 0.00 0.01 0.01 98 1009.6
20260502061836 40 199 2.0 2.0 0.00 0.01 0.01 98 1009.5
20260502061333 40 111 1.0 2.0 0.00 0.01 0.01 99 1009.4
20260502060829 40 111 0.0 0.0 0.00 0.01 0.01 98 1009.6
20260502060324 40 191 0.0 0.0 0.00 0.01 0.01 98 1009.5
20260502055822 40 173 1.0 2.0 0.00 0.01 0.01 98 1009.6
20260502055320 40 259 2.0 2.0 0.00 0.01 0.01 98 1009.5
20260502054819 40 197 0.0 0.0 0.00 0.01 0.01 98 1009.4
20260502054316 40 104 2.0 3.0 0.00 0.01 0.01 97 1009.0
20260502053814 40 106 1.0 1.0 0.00 0.01 0.01 97 1009.1
20260502053311 41 129 1.0 2.0 0.00 0.01 0.01 97 1009.4
20260502052809 41 313 4.0 6.0 0.05 0.01 0.01 98 1009.5
20260502052306 41 270 2.0 4.0 0.05 0.01 0.01 98 1009.2
20260502051804 41 162 2.0 3.0 0.00 0.00 0.00 98 1009.4
20260502051303 41 172 0.0 1.0 0.00 0.00 0.00 98 1009.4
20260502050758 41 195 2.0 2.0 0.00 0.00 0.00 98 1009.2
20260502050254 42 171 0.0 1.0 0.00 0.00 0.00 98 1009.5
20260502045752 41 252 2.0 2.0 0.00 0.00 0.00 98 1009.5
20260502045248 42 219 1.0 2.0 0.00 0.00 0.00 98 1009.4
20260502044745 42 223 1.0 2.0 0.00 0.00 0.00 97 1009.4
20260502044241 42 219 1.0 2.0 0.00 0.00 0.00 98 1009.4
20260502043739 42 201 0.0 1.0 0.00 0.00 0.00 97 1009.6
20260502043237 42 225 1.0 1.0 0.00 0.00 0.00 98 1009.5
20260502042736 42 205 1.0 1.0 0.00 0.00 0.00 98 1009.4
20260502042233 42 261 1.0 2.0 0.00 0.00 0.00 98 1009.3
20260502041731 42 240 3.0 3.0 0.00 0.00 0.00 99 1009.3
20260502041228 42 181 1.0 1.0 0.00 0.00 0.00 99 1009.2
20260502040725 42 204 1.0 1.0 0.00 0.00 0.00 99 1009.6
20260502040222 42 205 0.0 0.0 0.07 0.00 0.00 99 1009.4